星链-32341 (STARLINK-32341)

导读

STARLINK-32341是美国SpaceX星链(Starlink)星座的卫星,于2024年10月23日由猎鹰9号火箭从美国佛罗里达州卡纳维拉尔角空间站发射升空,进入近地轨道。星链计划旨在构建全球太空互联网通信系统,STARLINK-32341的入轨进一步扩充了星链低轨卫星规模,助力全球偏远及高需求区域实现高速低延迟互联网覆盖。

基本信息
目录编号:
61639
目录名称:
STARLINK-32341
国际标识:
2024-191U
轨道中心:
EARTH
卫星名称:
星链-32341
卫星全名:
星链-32341 (STARLINK-32341)
卫星状态:
在轨 (已飞行602 天)
发射日期:
2024-10-23 UTC
国别 :
美国 (US)
星等 :
--
轨道信息
数据来源 国际轨道数据
星历时间: 2026-06-17T11:05:51+0800
19小时前
查看轨道信息
半长轴: 6861.182km
偏心率: 0.0001476
轨道倾角: 43.003°
近地点辐角 272.076°
升交点赤经 312.984°
平近点角 87.992°
近地点: 482.032km
远地点: 484.058km
周期: 94.267分钟
每日圈数: 15.275817
详细信息
固有亮度:
5
最大亮度:
2.5
卫星平台:
Starlink V1.0
覆盖范围:
全球
运营商:
太空探索技术公司
运营商所在国:
美国
制造商(研发单位):
太空探索技术公司
制造商所在国:
美国
使用方式:
暂无
卫星简介
Starlink 计划是 SpaceX 推出的全球卫星互联网项目,通过发射低轨道卫星,为全球尤其是偏远地区提供高速、低延迟的互联网服务。自 2019 年起,Starlink 已部署数千颗卫星,旨在缩小全球数字鸿沟,推动互联网普及。该项目还为军事、航空等行业提供通信支持,带来广泛经济效益。
2D轨道图
3D轨道图
轨道高度分析图
轨道倾角分析图
轨道综合分析图
查看轨道综合分析图